Temperature
25 23 23 23 24 24 24 24 24 24 25 24 23 23 23 22 22 22 22 22 22 23 23 23 22 22 22 21 21 21 21 20 20 20 20 20 19 19 19 19 19 19 19 18
23 24 25 25 25 24 24 24 24 24 25 24 23 23 23 22 22 22 22 22 22 23 23 23 23 22 22 22 22 21 21 21 20 20 20 20 19 19 19 19 19 18 18 18
25 25 26 26 25 25 25 24 25 24 24 24 24 23 23 23 23 23 23 23 23 23 23 23 23 23 22 22 22 22 21 21 20 20 20 20 19 19 19 19 19 19 19 18
24 25 26 26 26 25 24 25 25 25 23 22 23 22 22 22 22 22 22 23 23 23 23 24 23 23 23 23 22 22 21 21 20 20 20 20 20 20 20 19 19 19 19 19
25 26 26 26 26 26 25 25 24 24 23 22 22 22 22 21 22 22 22 23 23 24 24 24 24 24 23 23 22 22 22 21 21 20 20 20 20 20 19 19 19 19 19 18
25 26 26 26 26 26 25 24 23 21 20 22 22 22 22 21 22 22 22 23 23 24 24 24 24 24 23 23 23 22 22 22 21 21 20 20 20 20 19 19 19 19 19 18
25 26 26 26 26 25 24 23 22 22 21 21 21 21 21 22 22 22 22 23 23 24 24 24 24 24 23 23 23 22 22 22 21 21 20 20 20 19 19 19 19 19 18 18
24 24 26 26 26 25 24 23 22 23 22 21 21 21 22 23 23 23 23 23 23 24 24 24 24 24 23 23 23 22 22 22 21 21 20 20 20 19 19 19 19 18 18 18
23 24 25 26 26 25 24 22 22 20 21 21 21 21 22 22 22 22 22 22 23 23 24 24 24 23 23 23 23 22 22 22 21 21 21 20 20 20 19 19 19 18 18 18
23 24 25 25 26 24 23 21 19 20 21 21 22 22 21 22 22 21 20 21 22 23 23 23 23 23 23 23 23 22 22 22 21 21 21 20 20 20 20 19 19 19 18 18
22 23 24 24 25 24 23 21 19 18 19 20 21 21 22 21 21 20 20 21 21 22 23 23 23 23 23 23 22 22 22 22 21 21 21 20 20 20 19 19 19 19 18 18
21 20 21 23 23 23 23 22 19 21 20 18 19 20 22 21 20 20 20 21 21 22 22 22 23 23 22 22 22 22 22 22 21 21 21 20 20 20 19 19 19 18 18 18
21 20 21 22 23 23 23 21 19 18 17 17 19 21 21 20 20 20 20 20 21 21 22 22 22 22 22 22 22 22 22 21 21 21 20 20 20 19 19 19 19 19 18 18
20 19 21 22 22 22 22 22 20 19 19 18 19 20 20 20 19 19 20 20 21 21 21 21 21 22 22 22 21 21 21 21 21 20 20 20 20 19 19 19 19 19 18 18
19 20 20 20 21 22 22 22 21 21 20 20 20 19 20 19 19 20 20 20 20 20 21 21 21 21 21 21 21 21 21 21 20 20 20 20 19 19 19 19 18 18 18 18
17 19 20 21 21 21 21 22 21 21 21 20 20 20 19 20 20 20 20 20 20 20 20 21 21 21 21 21 21 21 20 20 20 20 20 19 19 19 19 18 18 18 18 18
16 18 19 19 20 21 21 21 21 21 21 20 20 20 19 19 19 19 20 20 20 20 20 20 21 21 21 21 21 20 20 20 20 19 19 19 19 19 18 18 18 18 18 17
16 15 15 17 20 21 20 20 21 20 20 19 19 19 19 19 20 20 20 20 20 20 20 21 21 21 20 20 20 20 20 19 19 19 19 19 18 18 18 18 18 17 17 17
14 15 14 15 17 19 20 20 20 20 19 19 18 18 19 19 19 20 20 20 20 20 20 20 20 20 20 20 19 19 19 19 19 18 18 18 18 18 17 17 17 17 17 16
13 13 14 15 18 19 19 20 20 20 19 19 18 18 18 18 17 18 20 20 20 20 20 20 20 20 19 19 19 19 18 18 18 18 18 17 17 17 17 17 17 16 16 16
15 14 15 15 17 17 18 19 20 20 19 19 19 18 18 18 18 20 20 20 20 20 19 19 19 19 19 19 18 18 18 18 17 17 17 17 17 17 16 16 16 16 16 15
15 15 14 14 17 18 18 18 18 18 19 19 19 19 19 19 19 20 20 20 19 19 19 19 18 18 18 18 18 17 17 17 17 17 16 16 16 16 16 16 15 15 15 15
13 14 13 14 15 16 17 17 19 19 19 19 19 19 19 19 19 19 19 19 19 19 18 18 18 18 17 17 17 17 17 17 16 16 16 16 16 15 15 15 15 15 15 14
13 13 12 13 15 16 17 18 18 19 19 19 19 19 19 19 19 18 18 18 18 18 18 17 17 17 17 17 17 17 16 16 16 16 16 15 15 15 15 15 14 14 14 14
13 13 13 13 14 15 17 17 18 18 19 19 19 19 19 18 18 18 18 18 18 17 17 17 17 17 17 16 16 16 16 16 16 15 15 15 15 15 14 14 14 14 14 13
12 13 13 14 15 14 16 17 17 18 18 18 18 18 18 18 17 17 17 17 17 17 17 17 16 16 16 16 16 16 15 15 15 15 14 14 14 14 14 14 14 13 13 13
Wind_Speed
3 3 2 5 6 5 3 2 4 5 2 2 3 4 4 5 6 6 7 7 7 8 6 4 5 5 5 4 5 5 5 4 4 2 2 2 2 1 1 2 2 3 3 3
4 3 6 3 1 1 2 2 3 4 2 1 1 3 3 5 7 7 8 8 8 7 4 4 4 5 6 6 6 5 5 5 5 3 3 2 2 2 2 1 1 2 2 3
5 6 2 1 0 0 2 4 4 3 3 4 2 5 3 3 3 4 5 6 7 8 8 6 6 6 6 6 7 7 6 5 4 3 2 2 2 1 1 0 1 1 2 2
4 5 2 1 3 3 4 4 3 1 2 2 2 2 6 3 3 4 6 6 7 7 7 7 7 7 7 7 6 6 6 5 5 4 4 4 4 3 3 2 1 1 0 1
5 3 1 3 4 5 4 1 3 2 4 3 3 1 7 3 4 6 6 7 7 8 8 8 9 9 8 7 6 6 6 5 5 5 6 5 4 3 2 1 1 1 1 1
6 3 3 4 2 3 3 6 7 6 5 2 2 2 5 3 5 5 4 5 5 5 6 7 6 6 6 6 6 6 6 5 5 6 6 6 6 5 3 2 1 1 1 1
5 5 3 2 1 3 5 6 4 5 4 4 2 1 6 6 4 4 5 4 3 4 5 5 5 6 6 6 6 6 6 5 4 5 5 5 6 6 5 4 3 2 1 2
1 6 4 2 5 4 3 7 6 4 4 4 2 3 6 4 3 2 2 2 1 2 4 4 5 5 6 6 6 6 6 5 5 6 5 4 5 5 4 4 3 3 3 3
6 6 5 2 1 7 5 3 6 7 3 0 4 5 7 3 3 2 2 1 1 1 3 4 4 5 5 6 6 7 7 5 5 5 4 4 4 4 4 4 4 3 3 3
8 3 5 4 4 5 4 8 6 6 5 2 4 4 4 5 5 3 2 1 2 1 0 1 3 4 4 5 4 4 5 6 5 5 5 4 4 4 4 3 4 4 3 3
5 4 5 4 1 2 3 4 6 5 5 6 3 6 4 5 5 4 4 2 1 1 1 1 1 2 3 4 4 5 5 4 4 5 5 4 3 3 3 3 3 3 2 3
3 5 2 5 4 1 3 5 6 5 3 4 4 7 4 3 3 3 2 1 0 0 1 1 2 3 3 3 3 5 5 5 4 4 4 4 3 3 3 2 2 3 3 3
4 6 2 5 5 4 3 3 4 6 5 5 4 6 2 2 2 0 1 0 1 1 2 3 3 3 2 2 3 3 3 4 3 3 3 3 3 3 3 3 2 2 3 3
5 4 6 8 7 3 1 1 4 5 4 5 7 7 6 4 3 2 1 1 2 2 2 3 2 1 1 1 2 2 2 3 3 4 4 4 4 4 4 3 3 3 3 3
4 3 2 2 2 2 3 3 4 5 7 8 7 7 8 6 4 3 2 1 2 2 2 1 1 1 1 1 1 1 2 2 3 3 3 4 4 3 3 3 3 3 3 4
4 3 1 1 2 1 2 3 4 4 4 5 3 6 6 3 1 0 0 1 1 0 1 2 1 1 1 2 2 2 2 2 3 3 3 2 2 2 3 3 3 3 3 3
2 4 3 3 4 1 4 5 5 3 3 5 7 7 3 1 1 2 1 1 2 2 2 2 3 3 3 3 2 2 2 2 2 2 2 2 2 2 2 3 3 3 3 3
5 4 3 1 1 4 7 3 3 3 3 3 4 4 4 5 3 2 2 3 2 2 2 3 2 2 2 2 1 1 1 2 2 1 1 1 2 2 2 2 2 3 2 2
5 7 4 4 3 5 6 2 3 3 3 1 2 3 2 2 3 2 1 2 3 3 3 2 2 1 1 1 1 2 1 1 1 1 2 2 2 2 1 2 3 2 2 2
6 5 5 4 4 6 7 3 1 4 2 2 2 3 3 4 2 4 3 2 2 1 1 1 1 2 1 0 2 2 1 1 2 2 3 2 2 2 2 2 2 2 1 2
3 3 3 4 4 7 6 4 2 4 6 3 2 2 3 4 5 4 2 2 1 0 1 1 2 1 0 0 2 2 0 1 3 2 1 1 1 2 2 2 2 2 2 2
4 3 4 4 4 7 3 2 4 6 2 2 2 2 3 4 2 2 2 2 1 1 1 2 1 1 1 1 2 1 1 2 2 1 0 1 1 1 1 1 1 1 2 2
4 6 5 7 7 4 3 3 2 3 2 2 2 3 3 3 2 2 2 1 1 1 1 1 0 1 2 1 1 0 2 2 1 1 0 1 1 1 1 1 2 2 1 2
2 2 2 3 5 5 4 3 2 1 2 3 3 3 3 3 3 2 1 1 1 1 1 0 1 2 2 2 1 1 1 1 1 1 1 1 1 1 1 1 2 2 2 2
4 1 1 3 6 6 5 4 4 4 3 2 1 2 3 3 2 2 2 1 1 1 1 1 1 1 2 2 1 1 1 0 0 1 1 1 1 1 1 2 2 3 3 3
4 5 5 6 6 4 6 6 3 4 4 3 1 1 1 2 3 2 2 2 2 1 1 1 1 1 2 2 2 2 2 1 1 1 1 1 2 1 1 1 2 2 1 2
Wind_Direction
33 65 238 234 209 209 202 211 272 278 267 170 224 250 231 182 184 201 210 212 214 224 229 207 190 179 166 167 172 179 175 174 156 145 150 156 198 208 203 220 225 212 208 196
31 291 248 227 201 197 186 252 279 305 4 129 265 288 260 197 202 208 212 219 221 226 225 199 188 184 184 186 186 185 186 182 179 175 167 165 165 188 202 236 232 227 214 206
202 245 234 172 249 353 274 204 238 252 12 38 46 334 317 272 224 223 221 218 220 217 217 207 198 200 192 194 195 195 191 186 183 166 134 118 90 61 62 241 252 257 214 203
238 260 234 241 248 184 273 237 205 193 86 331 51 306 305 288 282 247 235 224 223 221 213 206 201 203 204 204 194 188 183 183 180 161 161 170 176 186 203 212 230 273 223 183
249 247 254 262 246 184 228 37 82 86 111 41 21 101 298 332 287 268 249 233 230 219 210 209 209 205 205 196 185 184 180 186 180 171 177 180 190 195 187 170 186 281 319 313
249 257 224 224 255 165 140 60 55 52 68 25 291 151 293 279 253 275 262 240 228 211 203 208 210 191 192 188 183 177 176 189 179 176 182 188 189 183 177 183 188 228 292 303
314 306 269 191 35 20 88 85 30 3 13 270 283 170 256 262 250 243 251 248 231 199 192 196 193 186 189 189 187 180 177 189 180 179 187 190 192 187 192 194 198 206 222 250
253 296 280 227 182 186 165 139 157 196 221 277 333 237 258 281 291 278 261 251 204 178 182 191 193 188 188 187 181 176 179 188 184 187 193 192 191 191 198 192 194 208 224 234
189 257 293 291 226 145 138 154 160 135 141 346 289 286 305 325 1 15 26 28 316 200 186 193 192 182 183 184 186 184 181 182 183 185 179 182 191 192 195 195 195 212 227 233
165 228 293 303 59 37 122 141 103 117 142 233 289 279 263 292 304 311 323 319 321 339 273 199 187 183 184 187 181 173 178 188 188 180 181 186 189 194 197 198 204 211 220 219
140 168 307 5 61 204 82 87 100 110 143 157 230 268 234 235 251 251 251 252 277 327 262 212 163 167 171 168 168 173 181 182 186 192 191 183 184 189 188 200 212 212 213 211
145 132 243 275 287 234 143 152 144 149 194 167 180 260 286 234 253 226 237 269 288 86 79 68 85 95 117 155 174 180 186 191 199 195 187 188 191 179 181 211 225 210 213 218
133 120 100 335 335 5 67 107 119 118 113 147 174 259 310 11 1 344 221 231 65 76 80 69 71 87 118 155 169 177 189 198 190 177 185 188 193 187 198 216 222 216 215 216
121 115 168 200 217 204 203 168 151 127 141 189 217 243 293 312 315 313 265 197 135 113 103 95 91 116 154 157 158 178 189 191 189 186 192 200 208 207 213 216 219 225 220 217
93 131 181 231 247 189 198 211 184 182 186 191 222 222 251 252 245 251 231 170 112 86 83 120 164 221 193 124 160 189 191 194 192 184 200 218 220 212 214 218 229 237 235 234
69 126 124 326 321 232 251 249 208 207 198 204 217 250 255 240 186 303 33 154 172 246 229 221 220 231 228 220 214 198 198 197 173 179 208 221 218 217 221 226 227 234 241 242
86 123 122 243 286 14 271 243 206 202 214 189 212 234 237 184 193 208 209 177 204 235 250 241 233 230 228 222 208 209 204 168 159 179 205 215 214 221 228 230 226 235 240 238
140 122 133 172 94 224 247 257 185 182 245 221 225 235 214 199 202 188 181 175 211 241 251 251 252 254 243 200 165 151 145 151 170 200 237 241 231 246 249 236 238 241 244 236
147 139 131 139 183 266 289 259 165 178 267 253 202 223 196 136 81 349 272 203 219 232 240 244 244 245 192 162 154 127 126 152 174 227 254 255 231 229 235 245 252 258 239 242
72 100 124 138 167 224 248 271 245 126 257 264 176 188 173 105 116 259 275 285 282 307 337 3 42 73 82 74 143 131 144 179 238 249 252 249 223 213 224 238 252 271 252 250
51 64 127 160 206 254 259 282 109 160 238 236 185 184 171 187 211 238 245 233 210 185 17 41 51 61 351 33 108 118 95 286 277 272 262 260 238 224 221 229 250 263 275 270
177 158 175 155 190 250 292 109 167 212 221 170 186 194 199 218 232 235 200 191 171 88 47 44 47 10 357 67 96 76 304 291 296 293 297 286 272 253 252 218 261 257 246 254
193 191 190 194 215 252 287 234 252 183 177 206 210 227 201 214 232 231 224 205 197 152 108 62 64 17 10 30 109 164 292 314 342 26 322 286 290 293 240 221 233 248 242 248
274 155 155 261 275 287 294 302 312 246 225 245 237 227 190 209 229 228 219 214 210 194 147 116 72 28 342 331 308 243 274 317 10 321 291 279 273 309 311 269 237 229 233 241
237 176 160 267 284 310 310 300 295 299 293 290 283 221 196 185 213 212 214 225 225 236 235 201 174 202 281 300 298 284 260 193 326 285 278 284 280 274 295 290 261 238 232 231
214 191 186 228 234 224 264 277 282 288 282 267 264 314 266 184 196 202 216 231 218 220 230 240 248 242 276 303 295 285 267 211 193 276 294 287 283 278 274 293 323 326 294 325
Height
1501 1506 1511 1508 1506 1507 1509 1513 1515 1508 1500 1503 1506 1506 1504 1503 1505 1506 1507 1507 1509 1509 1511 1513 1514 1515 1517 1518 1519 1520 1521 1521 1522 1523 1523 1524 1524 1525 1526 1527 1527 1527 1528 1528
1507 1509 1501 1500 1501 1504 1507 1513 1513 1506 1500 1503 1507 1506 1502 1503 1503 1504 1505 1505 1507 1508 1510 1512 1513 1515 1516 1517 1518 1519 1520 1521 1522 1522 1523 1524 1524 1525 1526 1527 1527 1527 1527 1527
1508 1503 1497 1499 1502 1505 1507 1511 1510 1510 1505 1504 1508 1512 1507 1503 1503 1504 1504 1504 1505 1507 1508 1510 1512 1513 1514 1515 1516 1518 1519 1520 1521 1522 1523 1524 1524 1524 1525 1526 1526 1526 1527 1527
1503 1497 1497 1500 1502 1503 1510 1500 1502 1506 1514 1522 1516 1531 1513 1506 1504 1502 1502 1502 1503 1504 1506 1508 1509 1511 1512 1514 1515 1516 1518 1519 1521 1521 1522 1522 1523 1523 1524 1524 1525 1525 1525 1526
1502 1496 1496 1500 1497 1497 1501 1497 1502 1507 1515 1524 1522 1530 1522 1509 1508 1502 1499 1499 1500 1501 1503 1505 1506 1508 1510 1512 1514 1515 1517 1518 1519 1520 1520 1521 1521 1522 1522 1523 1524 1524 1525 1525
1496 1493 1493 1493 1491 1493 1495 1501 1508 1516 1524 1537 1528 1531 1528 1514 1506 1500 1497 1497 1497 1498 1500 1502 1504 1506 1508 1510 1512 1513 1515 1516 1517 1518 1518 1519 1519 1520 1521 1522 1522 1523 1523 1524
1501 1494 1490 1490 1494 1495 1499 1516 1535 1538 1545 1542 1527 1530 1525 1504 1499 1498 1496 1495 1496 1497 1498 1500 1501 1503 1505 1507 1509 1511 1513 1514 1515 1516 1517 1517 1518 1519 1520 1520 1521 1522 1522 1523
1512 1511 1493 1489 1492 1498 1502 1511 1534 1545 1548 1541 1529 1530 1514 1498 1496 1495 1495 1494 1494 1495 1496 1498 1499 1501 1503 1505 1507 1508 1510 1512 1513 1514 1515 1515 1516 1517 1518 1518 1520 1520 1521 1521
1512 1510 1490 1487 1487 1491 1502 1511 1511 1530 1537 1543 1535 1523 1507 1496 1496 1495 1494 1493 1493 1494 1495 1497 1498 1500 1501 1503 1505 1507 1508 1510 1511 1512 1513 1514 1514 1515 1516 1516 1517 1518 1518 1519
1498 1507 1494 1489 1487 1491 1495 1504 1519 1531 1544 1548 1536 1528 1520 1504 1499 1496 1495 1494 1493 1493 1494 1496 1497 1499 1500 1502 1504 1506 1507 1508 1510 1511 1512 1512 1513 1513 1514 1514 1515 1515 1515 1516
1494 1506 1502 1496 1497 1499 1501 1507 1517 1529 1531 1544 1546 1531 1503 1500 1497 1496 1494 1494 1494 1494 1494 1495 1496 1498 1499 1501 1503 1504 1506 1507 1508 1509 1510 1511 1511 1512 1512 1513 1513 1513 1513 1514
1495 1505 1513 1503 1494 1492 1495 1502 1512 1523 1531 1536 1539 1528 1496 1495 1494 1493 1493 1494 1493 1494 1494 1495 1496 1497 1499 1500 1501 1503 1504 1505 1507 1508 1509 1509 1510 1510 1511 1511 1512 1512 1512 1512
1494 1506 1518 1515 1509 1500 1499 1502 1507 1516 1528 1537 1537 1522 1495 1494 1494 1493 1493 1493 1493 1494 1494 1494 1495 1496 1497 1499 1500 1501 1502 1504 1505 1506 1507 1508 1508 1509 1509 1510 1510 1510 1510 1510
1490 1504 1512 1518 1512 1504 1503 1502 1505 1511 1524 1530 1525 1514 1500 1495 1494 1493 1493 1493 1493 1494 1494 1494 1495 1496 1497 1498 1498 1500 1500 1502 1503 1504 1505 1506 1506 1507 1507 1508 1508 1508 1508 1508
1490 1503 1503 1502 1499 1499 1500 1500 1502 1505 1509 1515 1510 1508 1500 1494 1493 1492 1492 1492 1492 1493 1493 1494 1494 1495 1495 1496 1497 1498 1498 1500 1501 1502 1502 1503 1504 1504 1504 1505 1505 1505 1505 1505
1494 1502 1503 1503 1499 1499 1501 1498 1498 1499 1501 1503 1503 1503 1492 1491 1492 1492 1492 1492 1492 1492 1493 1493 1494 1494 1494 1494 1495 1495 1496 1497 1498 1499 1499 1500 1500 1501 1501 1501 1501 1501 1501 1501
1499 1503 1509 1513 1504 1501 1507 1498 1496 1496 1495 1497 1501 1496 1491 1492 1491 1491 1491 1491 1491 1492 1492 1492 1492 1492 1493 1493 1493 1494 1494 1495 1496 1496 1496 1497 1498 1498 1498 1498 1498 1497 1497 1497
1499 1506 1514 1516 1510 1517 1503 1489 1489 1492 1492 1491 1491 1490 1489 1489 1489 1490 1490 1491 1491 1491 1491 1491 1491 1491 1492 1492 1492 1493 1494 1494 1494 1494 1494 1494 1495 1495 1495 1495 1494 1494 1493 1493
1494 1503 1514 1520 1519 1511 1497 1489 1489 1492 1494 1490 1490 1489 1489 1489 1489 1490 1490 1489 1489 1490 1490 1490 1490 1491 1491 1491 1491 1491 1492 1492 1492 1492 1492 1492 1492 1492 1492 1491 1491 1491 1490 1489
1496 1500 1511 1518 1516 1516 1498 1486 1485 1489 1496 1488 1487 1488 1488 1488 1493 1491 1489 1489 1488 1489 1489 1489 1489 1489 1489 1489 1490 1489 1489 1490 1490 1490 1490 1490 1490 1489 1489 1488 1488 1488 1487 1486
1503 1507 1511 1514 1513 1505 1489 1484 1485 1499 1495 1486 1486 1486 1487 1487 1488 1487 1487 1487 1487 1488 1488 1489 1488 1488 1488 1488 1488 1488 1488 1488 1488 1488 1488 1488 1487 1486 1486 1485 1485 1484 1484 1483
1504 1508 1511 1513 1512 1505 1485 1485 1489 1489 1484 1484 1485 1485 1485 1485 1486 1486 1486 1486 1486 1486 1486 1487 1487 1486 1486 1486 1486 1486 1486 1487 1486 1486 1485 1485 1484 1484 1483 1482 1481 1481 1480 1479
1500 1500 1501 1501 1499 1488 1485 1484 1484 1483 1483 1484 1484 1484 1484 1484 1484 1484 1484 1484 1484 1484 1484 1485 1485 1485 1484 1485 1485 1484 1484 1484 1484 1483 1482 1482 1482 1481 1480 1479 1478 1477 1477 1476
1495 1494 1496 1495 1488 1486 1484 1483 1483 1483 1483 1482 1482 1483 1482 1482 1482 1483 1483 1483 1482 1482 1482 1483 1483 1482 1482 1483 1483 1483 1482 1482 1481 1480 1479 1479 1479 1478 1477 1476 1475 1474 1473 1472
1494 1493 1494 1493 1488 1484 1482 1482 1482 1481 1481 1480 1480 1481 1481 1481 1481 1481 1481 1481 1481 1481 1481 1481 1480 1480 1480 1480 1480 1480 1480 1480 1479 1478 1477 1477 1476 1475 1474 1474 1473 1471 1470 1470
1490 1490 1492 1490 1485 1485 1482 1481 1480 1479 1478 1478 1478 1478 1478 1478 1478 1479 1479 1479 1479 1479 1478 1478 1478 1477 1478 1478 1478 1478 1478 1477 1476 1475 1474 1474 1473 1472 1471 1471 1470 1469 1468 1467